VE3MNX Weather Reports


time (UTC)temp
C
wind
direction
speed
KPH
gust
KPH
rain 1hr
cm
rain 24hr
cm
rain mn
cm
humidity
%
barometer
mb
20260831053900 22 225 8.0 12.9 0.00 0.33 0.00 98 1015.6
20260831052400 22 241 8.0 11.3 0.00 0.33 0.00 96 1015.6
20260831050900 22 226 12.9 16.1 0.00 0.33 0.00 95 1015.6
20260831045400 22 224 8.0 11.3 0.00 0.33 0.00 95 1015.6
20260831043859 22 214 9.7 12.9 0.00 0.33 0.00 95 1015.9
20260831042405 22 222 9.7 12.9 0.00 0.33 0.00 95 1015.6
20260831040901 22 234 8.0 9.7 0.00 0.33 0.00 96 1015.9
20260831035355 22 249 9.7 14.5 0.00 0.33 0.33 96 1015.6
20260831033853 22 232 8.0 12.9 0.00 0.33 0.33 96 1015.6
20260831032352 22 213 8.0 12.9 0.00 0.33 0.33 95 1015.9
20260831030853 22 196 4.8 12.9 0.00 0.33 0.33 95 1015.6
20260831025352 22 183 8.0 19.3 0.00 0.33 0.33 93 1015.6
20260831023852 22 171 19.3 22.5 0.00 0.33 0.33 94 1015.6
20260831022352 22 188 9.7 20.9 0.00 0.33 0.33 95 1015.6
20260831020852 22 179 16.1 25.7 0.00 0.33 0.33 94 1015.6
20260831015355 22 187 11.3 16.1 0.00 0.33 0.33 93 1015.6
20260831013853 22 177 12.9 19.3 0.00 0.33 0.33 92 1015.6
20260831012355 22 172 19.3 29.0 0.00 0.33 0.33 91 1015.6
20260831010852 22 194 14.5 22.5 0.00 0.33 0.33 95 1015.6
20260831005352 22 240 9.7 24.1 0.00 0.33 0.33 97 1015.9
20260831003852 21 160 8.0 29.0 0.00 0.33 0.33 97 1016.3
20260831002353 21 184 11.3 20.9 0.03 0.33 0.33 97 1016.3
20260831000852 21 149 8.0 12.9 0.03 0.33 0.33 98 1016.6
20260830233852 21 160 8.0 9.7 0.08 0.33 0.33 97 1017.3
20260830232354 22 159 4.8 9.7 0.05 0.30 0.30 96 1017.3
20260830230853 22 165 3.2 8.0 0.05 0.30 0.30 95 1017.3
20260830225353 22 170 4.8 11.3 0.00 0.25 0.25 94 1016.9
20260830223854 22 176 3.2 4.8 0.00 0.25 0.25 94 1016.3
20260830222352 22 158 3.2 8.0 0.00 0.25 0.25 93 1016.3
20260830220852 22 176 3.2 8.0 0.00 0.25 0.25 92 1016.3
20260830215352 22 187 9.7 12.9 0.00 0.25 0.25 90 1016.0
20260830213851 22 185 4.8 12.9 0.00 0.25 0.25 91 1016.3
20260830212353 22 182 8.0 12.9 0.03 0.25 0.25 92 1015.8
20260830210851 22 177 3.2 11.3 0.03 0.25 0.25 92 1015.9
20260830205352 22 174 8.0 9.7 0.03 0.25 0.25 92 1016.3
20260830203855 22 173 4.8 8.0 0.03 0.25 0.25 92 1016.3
20260830202352 22 181 8.0 11.3 0.00 0.23 0.23 91 1016.3
20260830200852 22 194 4.8 9.7 0.00 0.23 0.23 90 1016.3
20260830195352 22 185 3.2 8.0 0.00 0.23 0.23 92 1016.3
20260830193852 22 191 4.8 8.0 0.00 0.23 0.23 93 1016.9
20260830192352 22 193 4.8 9.7 0.00 0.23 0.23 93 1016.6
20260830190852 21 173 4.8 4.8 0.00 0.23 0.23 93 1016.9
20260830185353 21 178 3.2 8.0 0.00 0.23 0.23 93 1017.3
20260830183852 21 194 8.0 11.3 0.00 0.23 0.23 93 1017.3
20260830182358 21 206 8.0 12.9 0.00 0.23 0.23 94 1016.9
20260830175352 21 188 4.8 9.7 0.00 0.23 0.23 95 1016.9
20260830173852 21 180 3.2 8.0 0.00 0.23 0.23 95 1017.4
20260830172353 21 182 4.8 8.0 0.03 0.23 0.23 95 1017.8
20260830170852 21 188 3.2 4.8 0.03 0.23 0.23 96 1018.0
20260830165352 20 185 4.8 4.8 0.05 0.23 0.23 98 1018.6
20260830163851 20 182 3.2 8.0 0.08 0.23 0.23 98 1018.6
20260830162352 20 196 4.8 8.0 0.08 0.20 0.20 96 1019.0
20260830160852 21 193 9.7 11.3 0.08 0.20 0.20 97 1019.0
20260830155352 21 188 4.8 8.0 0.10 0.18 0.18 98 1018.6
20260830153851 21 177 3.2 4.8 0.10 0.15 0.15 98 1019.0
20260830152352 21 181 3.2 4.8 0.10 0.13 0.13 97 1018.6
20260830150852 21 180 3.2 4.8 0.10 0.13 0.13 97 1018.3
20260830145352 21 179 3.2 3.2 0.05 0.08 0.08 96 1018.3
20260830140851 22 172 1.6 1.6 0.03 0.03 0.03 94 1017.9
20260830135351 22 172 1.6 1.6 0.03 0.03 0.03 96 1017.6
20260830133851 21 174 1.6 3.2 0.03 0.03 0.03 96 1017.9
20260830132352 21 172 0.0 1.6 0.00 0.00 0.00 96 1017.6
20260830130851 22 176 1.6 3.2 0.00 0.00 0.00 95 1017.9
20260830125351 22 178 1.6 3.2 0.00 0.00 0.00 93 1017.8
20260830123852 22 177 3.2 9.7 0.00 0.00 0.00 93 1017.2
20260830122351 22 184 4.8 11.3 0.00 0.00 0.00 94 1016.6
20260830120851 22 186 4.8 9.7 0.00 0.00 0.00 92 1016.6
20260830115352 22 190 8.0 9.7 0.00 0.00 0.00 94 1016.6
20260830113851 22 189 8.0 9.7 0.00 0.00 0.00 95 1016.6
20260830112352 22 185 4.8 8.0 0.00 0.00 0.00 95 1016.6
20260830105352 22 181 4.8 4.8 0.00 0.00 0.00 94 1016.9
20260830103851 22 178 3.2 4.8 0.00 0.00 0.00 96 1016.6
20260830102352 22 176 3.2 3.2 0.00 0.00 0.00 94 1016.9
20260830100854 22 174 3.2 4.8 0.00 0.00 0.00 94 1016.6
20260830095352 22 173 1.6 3.2 0.00 0.00 0.00 92 1016.9
20260830092352 22 172 1.6 1.6 0.00 0.00 0.00 89 1017.3
20260830090852 22 172 1.6 1.6 0.00 0.00 0.00 90 1017.3
20260830085351 22 174 1.6 3.2 0.00 0.00 0.00 92 1017.6
20260830083850 22 173 1.6 3.2 0.00 0.00 0.00 93 1017.3
20260830082352 22 177 3.2 8.0 0.00 0.00 0.00 93 1017.3
20260830075352 22 182 4.8 8.0 0.00 0.00 0.00 95 1017.0
20260830073851 22 174 4.8 4.8 0.00 0.00 0.00 95 1017.3
20260830072351 22 176 3.2 8.0 0.00 0.00 0.00 95 1017.3
20260830070854 22 174 3.2 8.0 0.00 0.00 0.00 94 1016.9
20260830065352 22 175 0.0 0.0 0.00 0.00 0.00 93 1017.3
20260830063851 22 169 1.6 3.2 0.00 0.00 0.00 93 1017.6
20260830062352 22 170 1.6 3.2 0.00 0.00 0.00 93 1017.6
20260830060852 22 170 1.6 1.6 0.00 0.00 0.00 92 1017.9
20260830055353 22 170 0.0 1.6 0.00 0.00 0.00 94 1017.9